Location: Bagnara
(41.0500°N, 14.7833°E)
Time: 13:41:41
(UTC+00:00)

X-37B - Pass Details

Date: 20 June 2021
Orbit: 383 x 392 km, 45.0° (Epoch: 01 July)

Event Time Altitude Azimuth Distance (km) Brightness Sun altitude
Exits shadow 02:01:00 - 291° (WNW) 2,166 4.2 -13.4°
Reaches altitude 10° 02:02:51 10° 293° (WNW) 1,406 3.2 -13.1°
Maximum altitude 02:06:00 75° 20° (NNE) 401 0.7 -12.7°
Drops below altitude 10° 02:09:10 10° 106° (ESE) 1,406 3.8 -12.3°
Sets 02:11:14 0° 108° (ESE) 2,260 4.8 -12.1°
